Regional Weather Roundup
Issued by NWS

Home | Current Version | Previous Version | Text Only | Print | Product List | Glossary On
Versions: 1 2 3 4 5 6 7 8 9 10 11 12 13 14 15 16 17 18 19 20 21 22 23 24 25 26 27 28 29 30 31 32 33 34 35 36 37 38 39 40 41 42 43 44 45 46 47 48 49 50
000
ASUS45 KSLC 260410
RWRUT

UTAH REGIONAL WEATHER ROUNDUP
NATIONAL WEATHER SERVICE SALT LAKE CITY UT
900 PM MST SUN JAN 25 2015

UTZ001>011-023>025-260500-

NORTHERN UTAH

CITY           SKY/WX    TMP DP  RH WIND       PRES   REMARKS
BRIGHAM CITY   PTCLDY    34  30  86 CALM      30.41F
HILL AFB       PTCLDY    38  24  57 N7        30.38F WCI  32
LOGAN          CLEAR     34  30  85 CALM      30.42F
OGDEN          PTCLDY    35  29  78 N7        30.38F WCI  29
PROVO AIRPORT  NOT AVBL
SALT LAKE CITY PTCLDY    35  30  82 CALM      30.40R
VERNAL         PTCLDY    29  21  72 NW5       30.40R WCI  24
WENDOVER       CLEAR     32  25  74 S5        30.41S WCI  27
HEBER CITY     CLEAR     30  28  93 CALM      30.39F
WEST JORDAN    CLEAR     36  32  87 SW6       30.40S WCI  31

$$

UTZ012>022-026-027-260500-

SOUTHERN/CENTRAL UTAH

CITY           SKY/WX    TMP DP  RH WIND       PRES   REMARKS
BLANDING       CLEAR     40  24  54 N7        30.38R
BRYCE CANYON   CLEAR     28  23  81 N6        30.40S WCI  22
CEDAR CITY     CLEAR     32  27  81 S6        30.37R WCI  26
DELTA          CLEAR     37  32  81 N7        30.37F WCI  31
MILFORD        CLEAR     33  27  78 NE5       30.38R WCI  29
MOAB/CYNLANDS  CLEAR     29  22  75 SW5       30.33S WCI  24
PRICE          CLEAR     35  21  56 NE9       30.35S WCI  28
ST GEORGE      CLEAR     55  30  38 N9        30.27S
KANAB          CLEAR     41  25  52 NW14      30.35R

$$

REGIONAL REPORTS     COLORADO/ARIZONA

CITY           SKY/WX    TMP DP  RH WIND       PRES   REMARKS
CRAIG, CO      PTCLDY    19  16  88 CALM      30.40S
GRAND JUNCTION CLEAR     35  23  61 E6        30.36F WCI  30
RIFLE          CLEAR     31  24  75 SE5       30.40R WCI  26
MONTROSE       CLEAR     28  19  69 SE7       30.40S WCI  21
CORTEZ         CLEAR     31  21  66 CALM      30.29R
PAGE, AZ       NOT AVBL
GRAND CANYON   CLEAR     37  21  52 NE9       30.34S WCI  30
KINGMAN        CLOUDY    51  27  39 E8        30.17S
FLAGSTAFF      CLEAR     33  20  58 NE5       30.34S WCI  29

$$

REGIONAL REPORTS    NEVADA/IDAHO/WYOMING

CITY           SKY/WX    TMP DP  RH WIND       PRES   REMARKS
LAS VEGAS, NV  PTCLDY    59  32  36 S10       30.11S
ELY            CLEAR     32  25  75 S6        30.41R WCI  26
ELKO           CLEAR     35  30  82 CALM      30.37S
POCATELLO, ID  FOG       31  31 100 NE7       30.45F VSB 1/2 WCI  24
BURLEY         CLEAR     32  29  88 NE14      30.39F WCI  22
EVANSTON, WY   MOCLDY    37  29  72 CALM      30.43F
ROCK SPRINGS   MOCLDY    34  26  72 SW12      30.36F WCI  25
KEMMERER       CLOUDY    34  30  86 NW7       30.42F WCI  28

$$


USA.gov is the U.S. government's official web portal to all federal, state and local government web resources and services.